Zurück zum Katalog

STARLINK-11629

AktivKommunikationVLEO
NORAD 63104·PAYLOAD·🇺🇸 United States

Gestartet Feb 27, 2025 von Cape Canaveral Space Force Station

Loading…

Nächste Überflüge (nächste 24 Stunden)

TLE

AktuellSource: CelesTrak SupGP

Epoche: Sep 14, 2026, 15:12 UTC

1 63104C 25039A   26257.63381944 -.00020597  00000+0 -16011-3 0  2576
2 63104  43.0006 177.7151 0001724 259.8667 117.6539 15.70827354    10

Verfolge STARLINK-11629 in Echtzeit mit AllMySat

Download on the App Store